< Cyclone 201516 2015 Season Cyclone 201519 >
Cyclone 201517 (Nathan)
General InformationTrack Information on Google MapsDetailed Wind InformationList of All Images || ResourceGoogle EarthGE AnimationAtom FeedGeoJSON
Detalied Best Track (Time Zone = UTC)
Year Month Day Hour Lat. Long. Pressure (hPa) Wind (kt) Class Image Chart
2015 3 9 00 -12.3 151.3 999 15 2 Image --
2015 3 9 06 -12.3 150.9 999 15 2 Image --
2015 3 9 12 -12.4 150.4 999 25 2 Image --
2015 3 9 21 -12.4 149.8 999 25 2 Image --
2015 3 10 00 -12.4 149.6 998 30 2 Image --
2015 3 10 03 -12.7 149.3 999 30 2 Image --
2015 3 10 06 -13.0 149.0 998 30 2 Image --
2015 3 10 12 -13.0 148.3 993 40 3 Image --
2015 3 10 18 -13.4 147.5 991 45 3 Image --
2015 3 10 21 -13.5 147.3 991 45 3 Image --
2015 3 11 00 -13.7 146.8 990 50 4 Image --
2015 3 11 03 -13.7 146.5 990 50 4 Image --
2015 3 11 06 -13.7 146.4 986 50 4 Image --
2015 3 11 09 -13.8 146.2 985 50 4 Image --
2015 3 11 12 -13.8 146.0 985 50 4 Image --
2015 3 11 15 -13.8 145.9 985 50 4 Image --
2015 3 11 18 -13.7 145.8 986 50 4 Image --
2015 3 11 21 -13.8 145.6 984 50 4 Image --
2015 3 12 00 -13.8 145.4 987 50 4 Image --
2015 3 12 03 -13.8 145.1 985 50 4 Image --
2015 3 12 06 -13.8 145.1 982 50 4 Image --
2015 3 12 09 -13.8 145.2 981 50 4 Image --
2015 3 12 12 -13.7 145.0 980 55 4 Image --
2015 3 12 15 -13.6 144.9 981 55 4 Image --
2015 3 12 18 -13.4 145.0 981 55 4 Image --
2015 3 12 21 -13.3 145.0 981 55 4 Image --
2015 3 13 00 -13.3 145.0 980 55 4 Image --
2015 3 13 03 -13.3 145.1 979 55 4 Image --
2015 3 13 06 -13.3 145.1 979 55 4 Image --
2015 3 13 09 -13.2 145.0 979 55 4 Image --
2015 3 13 12 -13.1 145.0 982 55 4 Image --
2015 3 13 15 -13.0 145.0 982 55 4 Image --
2015 3 13 18 -13.0 145.0 980 55 4 Image --
2015 3 13 21 -13.1 145.2 986 50 4 Image --
2015 3 14 00 -13.2 145.5 989 50 4 Image --
2015 3 14 03 -13.1 145.6 990 45 3 Image --
2015 3 14 06 -13.0 145.8 990 45 3 Image --
2015 3 14 09 -13.0 146.5 994 40 3 Image --
2015 3 14 12 -13.2 146.9 995 40 3 Image --
2015 3 14 15 -13.2 147.1 995 40 3 Image --
2015 3 14 18 -13.3 147.5 994 40 3 Image --
2015 3 14 21 -13.0 147.9 994 45 3 Image --
2015 3 15 00 -13.1 148.5 995 45 3 Image --
2015 3 15 06 -13.6 148.8 989 45 3 Image --
2015 3 15 12 -13.6 149.0 987 45 3 Image --
2015 3 15 18 -13.7 149.7 985 50 4 Image --
2015 3 16 00 -13.8 149.7 988 50 4 Image --
2015 3 16 06 -13.9 149.8 984 55 4 Image --
2015 3 16 12 -14.0 149.8 989 50 4 Image --
2015 3 16 15 -14.1 149.7 989 50 4 Image --
2015 3 16 18 -14.2 149.7 990 50 4 Image --
2015 3 16 21 -14.3 149.7 990 45 3 Image --
2015 3 17 00 -14.4 149.6 994 45 3 Image --
2015 3 17 03 -14.5 149.6 994 45 3 Image --
2015 3 17 06 -14.6 149.7 993 45 3 Image --
2015 3 17 09 -14.7 149.8 994.5 45 3 Image --
2015 3 17 12 -14.8 149.7 996 40 3 Image --
2015 3 17 15 -15.0 149.6 994.5 42.5 0 Image --
2015 3 17 18 -15.1 149.4 993 45 3 Image --
2015 3 17 21 -15.0 149.4 990 50 4 Image --
2015 3 18 00 -15.1 149.2 990 50 4 Image --
2015 3 18 06 -14.9 149.0 977 65 5 Image --
2015 3 18 09 -14.8 149.0 975 70 5 Image --
2015 3 18 12 -14.7 148.8 971 75 5 Image --
2015 3 18 15 -14.7 148.5 973 75 5 Image --
2015 3 18 18 -14.6 148.2 972 75 5 Image --
2015 3 18 21 -14.6 147.9 972 75 5 Image --
2015 3 19 00 -14.5 147.6 972 75 5 Image --
2015 3 19 02 -14.6 147.4 972 75 5 Image --
2015 3 19 03 -14.6 147.2 972 75 5 Image --
2015 3 19 04 -14.7 147.1 975 75 5 Image --
2015 3 19 05 -14.6 147.0 972 75 5 Image --
2015 3 19 06 -14.6 146.9 971 75 5 Image --
2015 3 19 07 -14.7 146.8 973 75 5 Image --
2015 3 19 08 -14.7 146.7 973 75 5 Image --
2015 3 19 09 -14.7 146.6 968 80 5 Image --
2015 3 19 10 -14.7 146.4 968 80 5 Image --
2015 3 19 11 -14.7 146.2 968 80 5 Image --
2015 3 19 12 -14.7 146.0 964 85 5 Image --
2015 3 19 13 -14.6 145.8 967 85 5 Image --
2015 3 19 14 -14.6 145.7 968 85 5 Image --
2015 3 19 15 -14.6 145.6 963 90 5 Image --
2015 3 19 16 -14.7 145.5 963 90 5 Image --
2015 3 19 17 -14.7 145.2 963 90 5 Image --
2015 3 19 18 -14.6 145.0 963 90 5 Image --
2015 3 19 19 -14.6 144.9 963 90 5 Image --
2015 3 19 20 -14.6 144.7 968 85 5 Image --
2015 3 19 21 -14.5 144.5 974 75 5 Image --
2015 3 19 22 -14.5 144.4 978 70 5 Image --
2015 3 19 23 -14.4 144.3 981 65 5 Image --
2015 3 20 00 -14.4 144.2 983 65 5 Image --
2015 3 20 01 -14.4 144.0 983 65 5 Image --
2015 3 20 02 -14.4 143.9 983 65 5 Image --
2015 3 20 03 -14.3 143.8 983 65 5 Image --
2015 3 20 04 -14.4 143.6 985 60 4 Image --
2015 3 20 05 -14.4 143.4 992 50 4 Image --
2015 3 20 06 -14.3 143.2 995 45 3 Image --
2015 3 20 07 -14.3 143.0 993 45 3 Image --
2015 3 20 08 -14.4 142.9 993 45 3 Image --
2015 3 20 09 -14.4 142.8 995 45 3 Image --
2015 3 20 12 -14.3 142.2 998 40 3 Image --
2015 3 20 15 -14.2 141.8 999 35 3 Image --
2015 3 20 18 -14.0 141.4 999 35 3 Image --
2015 3 20 21 -13.8 140.8 999 35 3 Image --
2015 3 21 00 -13.6 140.2 999 40 3 Image --
2015 3 21 03 -13.6 139.9 999 40 3 Image --
2015 3 21 06 -13.6 139.4 999 40 3 Image --
2015 3 21 09 -13.5 138.9 995 45 3 Image --
2015 3 21 12 -13.3 138.5 990 50 4 Image --
2015 3 21 15 -13.1 137.8 989 55 4 Image --
2015 3 21 18 -12.9 137.3 986 60 4 Image --
2015 3 21 20 -12.8 137.2 985 60 4 Image --
2015 3 21 21 -12.7 137.1 985 60 4 Image --
2015 3 21 22 -12.6 137.0 985 60 4 Image --
2015 3 21 23 -12.5 136.9 985 60 4 Image --
2015 3 22 00 -12.5 136.8 984 60 4 Image --
2015 3 22 01 -12.3 136.6 988 55 4 Image --
2015 3 22 02 -12.3 136.5 988 55 4 Image --
2015 3 22 03 -12.3 136.5 988 55 4 Image --
2015 3 22 04 -12.3 136.3 988 55 4 Image --
2015 3 22 05 -12.2 136.2 988 55 4 Image --
2015 3 22 06 -12.1 136.1 988 55 4 Image --
2015 3 22 07 -12.0 136.0 988 55 4 Image --
2015 3 22 08 -11.9 136.0 988 55 4 Image --
2015 3 22 09 -11.8 135.9 988 55 4 Image --
2015 3 22 10 -11.7 135.8 988 55 4 Image --
2015 3 22 11 -11.6 135.8 988 55 4 Image --
2015 3 22 12 -11.6 135.6 986 55 4 Image --
2015 3 22 13 -11.5 135.5 986 55 4 Image --
2015 3 22 14 -11.5 135.5 986 55 4 Image --
2015 3 22 16 -11.6 135.4 982 60 4 Image --
2015 3 22 18 -11.6 135.2 981 60 4 Image --
2015 3 22 21 -11.6 135.0 981 60 4 Image --
2015 3 23 00 -11.5 134.7 982 60 4 Image --
2015 3 23 03 -11.4 134.5 982 60 4 Image --
2015 3 23 06 -11.4 134.5 985 55 4 Image --
2015 3 23 09 -11.4 134.4 988 50 4 Image --
2015 3 23 12 -11.4 134.3 988 50 4 Image --
2015 3 23 15 -11.5 134.2 988 50 4 Image --
2015 3 23 18 -11.6 134.0 991 45 3 Image --
2015 3 23 21 -11.8 133.8 995 40 3 Image --
2015 3 24 00 -12.1 133.5 998 35 3 Image --
2015 3 24 02 -12.3 133.0 1000 32.5 0 Image --
2015 3 24 03 -12.4 132.7 1002 30 2 Image --
2015 3 24 06 -12.4 132.6 1003 0 0 Image --
2015 3 24 09 -12.4 132.4 1003 0 0 Image --
2015 3 24 12 -12.3 132.3 1005 0 0 Image --
2015 3 24 15 -12.4 132.2 1006 0 0 Image --
2015 3 24 18 -12.4 132.0 1006 0 0 Image --
2015 3 24 21 -12.7 131.9 1007 0 0 Image --
2015 3 25 00 -12.7 131.7 1008 0 0 Image --
2015 3 25 03 -12.8 131.0 1008 0 0 Image --
2015 3 25 06 -12.9 130.5 1006 0 0 Image --
2015 3 25 09 -13.4 130.5 1008 0 0 Image --
2015 3 25 12 -13.5 130.2 1009 0 0 Image --
2015 3 25 15 -13.5 130.2 1010 0 0 Image --
2015 3 25 18 -13.6 129.9 1008 0 0 Image --
2015 3 25 21 -12.9 129.0 1008 0 0 Image --
2015 3 26 00 -12.7 128.5 1009 0 0 Image --
2015 3 26 03 -12.7 128.2 1009 0 0 Image --
2015 3 26 06 -12.9 128.0 1008 0 0 Image --
2015 3 26 09 -12.9 127.5 1008 0 0 Image --
2015 3 26 12 -12.9 127.2 1009 0 0 Image --
2015 3 26 15 -12.9 127.0 1010 0 0 Image --
2015 3 26 18 -12.9 126.8 1010 0 0 Image --
2015 3 26 21 -12.9 126.4 1009 0 0 Image --
2015 3 27 00 -12.9 126.0 1010 0 0 Image --
< Cyclone 201516 2015 Season Cyclone 201519 >

Help